EA1EE Weather Reports


Display with metric or nautical units.
time (UTC)temp
F
wind
direction
speed
MPH
gust
MPH
rain 1hr
in
rain 24hr
in
rain mn
in
humidity
%
barometer
mb
20260506232724 48 23 4.0 8.0 0.00 0.02 0.00 99 1013.5
20260506231803 48 30 4.0 6.0 0.00 0.02 0.00 99 1013.6
20260506230924 48 33 3.0 6.0 0.00 0.02 0.00 99 1013.6
20260506230003 48 30 5.0 8.0 0.00 0.02 0.00 99 1013.6
20260506225403 48 29 5.0 8.0 0.00 0.02 0.00 98 1013.7
20260506224503 48 28 5.0 8.0 0.00 0.02 0.00 98 1013.6
20260506223624 49 25 5.0 7.0 0.00 0.02 0.00 98 1013.9
20260506222703 49 26 4.0 7.0 0.00 0.02 0.00 98 1013.9
20260506221803 49 23 5.0 8.0 0.00 0.02 0.00 98 1014.0
20260506220903 49 28 4.0 9.0 0.00 0.02 0.00 97 1014.1
20260506220004 49 29 4.0 7.0 0.00 0.02 0.00 97 1014.2
20260506215403 49 29 5.0 11.0 0.00 0.02 0.02 97 1014.3
20260506214503 49 32 3.0 8.0 0.00 0.02 0.02 97 1014.2
20260506213603 49 27 4.0 9.0 0.00 0.02 0.02 97 1014.3
20260506212724 49 27 5.0 9.0 0.00 0.02 0.02 96 1014.3
20260506211803 49 32 4.0 8.0 0.00 0.02 0.02 96 1014.4
20260506210903 49 38 3.0 7.0 0.00 0.02 0.02 95 1014.4
20260506210003 49 26 4.0 7.0 0.00 0.02 0.02 95 1014.3
20260506205424 49 25 5.0 8.0 0.00 0.02 0.02 95 1014.3
20260506204503 49 25 5.0 8.0 0.00 0.02 0.02 95 1014.4
20260506203603 49 27 4.0 7.0 0.00 0.02 0.02 94 1014.3
20260506202703 49 23 4.0 8.0 0.00 0.02 0.02 95 1014.3
20260506201803 49 25 5.0 9.0 0.00 0.02 0.02 95 1014.1
20260506200903 49 22 5.0 11.0 0.00 0.02 0.02 95 1014.2
20260506200003 49 21 5.0 10.0 0.00 0.02 0.02 95 1014.2
20260506195403 49 23 6.0 11.0 0.00 0.02 0.02 95 1014.2
20260506194503 49 22 6.0 10.0 0.00 0.02 0.02 95 1014.1
20260506193603 50 23 6.0 12.0 0.00 0.02 0.02 95 1014.2
20260506192724 50 23 4.0 11.0 0.00 0.02 0.02 95 1014.2
20260506191803 50 20 6.0 10.0 0.00 0.02 0.02 95 1014.2
20260506190903 50 24 5.0 10.0 0.00 0.02 0.02 94 1014.2
20260506190003 50 18 4.0 9.0 0.00 0.02 0.02 92 1014.2
20260506185403 50 17 5.0 10.0 0.00 0.02 0.02 91 1014.1
20260506184503 50 14 5.0 10.0 0.00 0.02 0.02 90 1014.0
20260506183624 50 20 5.0 11.0 0.00 0.02 0.02 90 1014.0
20260506182703 51 14 4.0 8.0 0.00 0.02 0.02 90 1014.1
20260506181803 51 14 6.0 13.0 0.00 0.02 0.02 88 1014.2
20260506180903 52 14 4.0 12.0 0.00 0.02 0.02 88 1014.1
20260506180025 51 21 5.0 10.0 0.00 0.02 0.02 89 1014.2
20260506175424 51 19 6.0 14.0 0.00 0.02 0.02 89 1014.2
20260506174503 52 22 5.0 13.0 0.00 0.02 0.02 88 1014.3
20260506173603 52 15 5.0 11.0 0.00 0.02 0.02 86 1014.4
20260506172703 52 23 4.0 11.0 0.00 0.02 0.02 87 1014.5
20260506171803 52 18 5.0 11.0 0.00 0.02 0.02 87 1014.5
20260506170904 52 25 6.0 13.0 0.00 0.02 0.02 87 1014.5
20260506170003 52 21 6.0 11.0 0.00 0.02 0.02 87 1014.6
20260506165403 52 26 6.0 10.0 0.00 0.02 0.02 88 1014.7
20260506164524 52 30 5.0 10.0 0.00 0.02 0.02 89 1014.7
20260506163603 52 19 4.0 9.0 0.00 0.02 0.02 89 1014.7
20260506162703 52 9 5.0 13.0 0.00 0.02 0.02 88 1014.7
20260506161803 53 20 4.0 10.0 0.00 0.02 0.02 87 1014.6
20260506160924 53 11 4.0 8.0 0.00 0.02 0.02 86 1014.6
20260506160003 53 21 4.0 8.0 0.00 0.02 0.02 86 1014.7
20260506155403 54 19 5.0 10.0 0.00 0.02 0.02 84 1014.8
20260506154503 54 18 4.0 12.0 0.00 0.02 0.02 82 1014.7
20260506153603 53 7 4.0 10.0 0.00 0.02 0.02 83 1014.8
20260506152703 53 7 5.0 10.0 0.00 0.02 0.02 84 1014.8
20260506151803 54 22 5.0 9.0 0.00 0.02 0.02 83 1014.9
20260506150903 53 17 5.0 11.0 0.00 0.02 0.02 83 1015.0
20260506150003 53 11 4.0 9.0 0.00 0.02 0.02 84 1015.1
20260506145403 53 24 5.0 9.0 0.00 0.02 0.02 84 1015.2
20260506144503 54 23 4.0 9.0 0.00 0.02 0.02 82 1015.3
20260506143624 54 11 3.0 8.0 0.00 0.02 0.02 83 1015.3
20260506142703 54 18 3.0 7.0 0.00 0.02 0.02 83 1015.4
20260506141803 53 7 3.0 7.0 0.00 0.02 0.02 84 1015.4
20260506140903 53 23 3.0 7.0 0.00 0.02 0.02 85 1015.5
20260506140003 53 15 3.0 9.0 0.00 0.02 0.02 86 1015.5
20260506135403 53 12 2.0 5.0 0.00 0.02 0.02 86 1015.5
20260506134503 53 19 3.0 6.0 0.00 0.02 0.02 86 1015.6
20260506133603 53 17 3.0 7.0 0.00 0.02 0.02 84 1015.5
20260506132703 53 20 3.0 7.0 0.00 0.02 0.02 82 1015.4
20260506131803 53 11 4.0 7.0 0.00 0.02 0.02 83 1015.4
20260506130924 53 19 4.0 8.0 0.00 0.02 0.02 85 1015.4
20260506130003 53 23 4.0 8.0 0.00 0.02 0.02 85 1015.7
20260506125424 53 13 4.0 7.0 0.00 0.02 0.02 85 1015.7